Regional Weather Roundup
Issued by NWS Raleigh/Durham, NC

Current Version | Previous Version | Graphics & Text | Print | Product List | Glossary On
Versions: 1 2 3 4 5 6 7 8 9 10 11 12 13 14 15 16 17 18 19 20 21 22 23 24 25 26 27 28 29 30 31 32 33 34 35 36 37 38 39 40 41 42 43 44 45 46 47 48 49 50
000
ASUS42 KRAH 221710
RWRRAH
NORTH CAROLINA WEATHER ROUNDUP
NATIONAL WEATHER SERVICE RALEIGH NC
100 PM EDT FRI AUG 22 2014

NOTE: "FAIR" INDICATES FEW OR NO CLOUDS BELOW 12,000 FEET WITH NO
SIGNIFICANT WEATHER AND/OR OBSTRUCTIONS TO VISIBILITY.

NCZ001-053-055-056-065-067-221800-
WESTERN NORTH CAROLINA

CITY           SKY/WX    TMP DP  RH WIND       PRES   REMARKS
ASHEVILLE      MOSUNNY   85  67  54 NW9G18    30.15F
JEFFERSON      MOSUNNY   76  62  63 W10       30.20S
MORGANTON      PTSUNNY   91  65  41 NW7       30.12F
HICKORY        MOSUNNY   89  68  49 NW6       30.07F
RUTHERFORDTON  MOSUNNY   89  71  55 S10       30.08F
MOUNT AIRY     PTSUNNY   85  75  71 W5        30.08S
BOONE          CLOUDY    75  65  69 NW15G22   30.20F
$$

NCZ021-022-025-041-071-084-088-221800-
CENTRAL NORTH CAROLINA

CITY           SKY/WX    TMP DP  RH WIND       PRES   REMARKS
CHARLOTTE      PTSUNNY   91  67  44 N8        30.06S
GREENSBORO     CLOUDY    89  72  56 VRB6      30.04F HX  96
WINSTON-SALEM  PTSUNNY   87  69  54 W5        30.06F
RALEIGH-DURHAM PTSUNNY   89  72  56 N8        30.02F HX  96
FORT BRAGG     SUNNY     93  71  48 N6        30.00F HX  99
FAYETTEVILLE   SUNNY     95  68  41 VRB7      30.00F HX  99
BURLINGTON     PTSUNNY   90  70  51 VRB3      30.02F HX  95
LAURINBURG     SUNNY     94  69  44 W3        30.02F HX  99
$$

NCZ011-015-027-028-043-044-047-080-103-221800-
NORTHEASTERN NORTH CAROLINA

CITY           SKY/WX    TMP DP  RH WIND       PRES   REMARKS
ROCKY MT-WILSO PTSUNNY   88  72  58 NW8       30.00S
GREENVILLE     PTSUNNY   88  72  58 N3        30.01S
WASHINGTON     SUNNY     86  71  61 N8        29.99S
ELIZABETH CITY PTSUNNY   86  71  60 N6        29.96F
MANTEO         SUNNY     82  73  74 NW7       29.97F
CAPE HATTERAS  SUNNY     84  74  71 W7        29.97F
$$

NCZ078-087-090-091-093-098-101-221800-
SOUTHEASTERN NORTH CAROLINA

CITY           SKY/WX    TMP DP  RH WIND       PRES   REMARKS
LUMBERTON      MOSUNNY   93  70  46 VRB7      30.00F HX  99
GOLDSBORO      MOSUNNY   90  76  64 NW10      29.98S HX 101
KINSTON        MOSUNNY   90  72  55 NW6       30.00F HX  96
KENANSVILLE    MOSUNNY   91  68  47 W6        30.00F
NEW BERN       MOSUNNY   93  73  52 W8        29.99F HX 102
CHERRY POINT   MOSUNNY   91  73  55 NW9       29.99F HX  99
BEAUFORT       MOSUNNY   91  72  53 W7        29.98F HX  98
JACKSONVILLE   MOSUNNY   92  72  51 VRB6      29.98F HX  99
WILMINGTON     PTSUNNY   92  72  51 W9        30.00F HX  99
$$




USA.gov is the U.S. government's official web portal to all federal, state and local government web resources and services.